Portada
METAR-TAF:

METAR-TAF

Aeroports :

Stuttgart Municipal Airport

Stuttgart, Arkansas, Estats Units d'Amèrica

latitud: 34-36N, longitud: 091-34W, altitud: 68 m

Observació

L'informe es va fer fa 23 minuts, a les 10:27 UTC
Vent 7 kt del Nord
Temperatura 11°C
Humitat 94%
Pressió 1020 hPa
Visibilitat: 16.1 km
Cel cobert a una alçada de 1100 ft

METAR: KSGT 261027Z AUTO 01007KT 10SM OVC011 11/10 A3012 RMK AO2

Hora: 05:50 (10:50 UTC)


TAF: manca

Observacions i pronòstics meteorològics de més de 4000 aeroports (METAR i TAF).

Les estacions disponibles són els punts grocs i vermells al mapa.

Posi el ratolí al punt desitjat per veure el nom de l'estació.

Feu clic per veure les observacions i els pronòstics meteorològics.

Per canviar el mapa: feu clic els botons verds amb una creu de color negre per apropar; al botó verd amb un guió per allunyar la imatge; o en les fletxes verdes per a mapes adjacents.


METAR-TAF: